Date String (YYYY-MM-DD hh:mm:ss) UTC,Instrument flags,absolute air pressure of the measurement (hPa),sample flow rate (lpm),inlet stack bypass flow (lpm),air temperature of the measurement (°C),ambient temperature measured by the external sensor (°C),aerosol sample conditioner tube jacket temperature (°C),OPC LED temperature (°C),internal box temperature (°C),relative humidity of the measurement (%),span deviation,mass concentration of particles derived from Lorenz-Mie calculation of OPC scattering (μg/m³),mass concentration of particles derived from Lorenz-Mie calculation of OPC scattering (μg/m³),mass concentration of particles derived from Lorenz-Mie calculation of OPC scattering (μg/m³)
DateTimeUTC,F1_M11,P_M11,Q1_M11,Q2_M11,T1_M11,T2_M11,T3_M11,T4_M11,T5_M11,U1_M11,ZSPAN_M11,X0_M11,X2_M11,X1_M11
2024-05-27 03:00:00,SystemResetWarning,0828.9,5.00,000.00,031.2,030.4,000.0,039.5,032.8,010.1,0000.0,0006.14,0002.96,0002.19
2024-05-27 03:01:00,SystemResetWarning,0829.0,5.00,000.00,031.2,030.4,000.0,039.5,032.8,010.2,0000.0,0006.13,0002.96,0002.18
2024-05-27 03:02:00,SystemResetWarning,0829.0,5.00,000.00,031.2,030.4,000.0,039.5,032.8,010.1,0000.0,0006.15,0002.96,0002.16
2024-05-27 03:03:00,SystemResetWarning,0828.9,5.00,000.00,031.2,030.4,000.0,039.5,032.8,010.1,0000.0,0006.33,0002.95,0002.15
2024-05-27 03:04:00,SystemResetWarning,0829.0,5.01,000.00,031.2,030.4,000.0,039.5,032.8,010.2,0000.0,0007.28,0002.95,0002.15
2024-05-27 03:05:00,SystemResetWarning,0829.1,4.99,000.00,031.2,030.4,000.0,039.5,032.9,010.2,0000.0,0006.47,0002.87,0002.14
2024-05-27 03:06:00,SystemResetWarning,0829.0,5.00,000.00,031.2,030.4,000.0,039.5,032.8,010.2,0000.0,0005.87,0002.83,0002.12
2024-05-27 03:07:00,SystemResetWarning,0829.1,5.00,000.00,031.2,030.4,000.0,039.5,032.8,010.1,0000.0,0005.93,0002.83,0002.12
2024-05-27 03:08:00,SystemResetWarning,0829.1,5.00,000.00,031.2,030.5,000.0,039.5,032.9,010.2,0000.0,0005.95,0002.85,0002.11
2024-05-27 03:09:00,SystemResetWarning,0829.1,5.01,000.00,031.2,030.4,000.0,039.5,032.9,010.0,0000.0,0005.98,0002.83,0002.09
2024-05-27 03:10:00,SystemResetWarning,0829.1,4.99,000.00,031.2,030.4,000.0,039.5,032.8,010.0,0000.0,0006.59,0002.80,0002.06
2024-05-27 03:11:00,SystemResetWarning,0829.1,4.99,000.00,031.2,030.4,000.0,039.5,032.9,010.0,0000.0,0006.53,0002.74,0002.04
2024-05-27 03:12:00,SystemResetWarning,0829.1,5.00,000.00,031.2,030.4,000.0,039.6,032.9,010.1,0000.0,0006.61,0002.77,0002.04
2024-05-27 03:13:00,SystemResetWarning,0829.1,5.01,000.00,031.2,030.4,000.0,039.6,032.9,010.1,0000.0,0006.50,0002.74,0002.04
2024-05-27 03:14:00,SystemResetWarning,0829.1,5.00,000.00,031.2,030.4,000.0,039.6,032.9,010.0,0000.0,0006.42,0002.76,0002.05
2024-05-27 03:15:00,SystemResetWarning,0829.1,5.00,000.00,031.2,030.4,000.0,039.6,032.9,010.0,0000.0,0005.58,0002.79,0002.05
2024-05-27 03:16:00,SystemResetWarning,0829.1,4.99,000.00,031.2,030.4,000.0,039.6,032.9,010.0,0000.0,0005.39,0002.79,0002.06
2024-05-27 03:17:00,SystemResetWarning,0829.1,5.00,000.00,031.2,030.4,000.0,039.6,032.8,010.0,0000.0,0005.32,0002.77,0002.07
2024-05-27 03:18:00,SystemResetWarning,0829.2,5.00,000.00,031.2,030.4,000.0,039.6,032.8,010.0,0000.0,0005.90,0002.73,0002.07
2024-05-27 03:19:00,SystemResetWarning,0829.2,4.99,000.00,031.2,030.4,000.0,039.6,032.9,010.0,0000.0,0006.25,0002.69,0002.06
2024-05-27 03:20:00,SystemResetWarning,0829.2,5.00,000.00,031.2,030.5,000.0,039.6,032.9,010.0,0000.0,0006.22,0002.68,0002.09
2024-05-27 03:21:00,SystemResetWarning,0829.2,5.01,000.00,031.3,030.5,000.0,039.6,032.9,010.1,0000.0,0005.73,0002.72,0002.11
2024-05-27 03:22:00,SystemResetWarning,0829.3,5.00,000.00,031.3,030.5,000.0,039.6,032.9,010.3,0000.0,0005.68,0002.75,0002.12
2024-05-27 03:23:00,SystemResetWarning,0829.3,5.00,000.00,031.3,030.5,000.0,039.6,032.9,010.3,0000.0,0005.87,0002.77,0002.12
2024-05-27 03:24:00,SystemResetWarning,0829.3,5.00,000.00,031.3,030.5,000.0,039.6,032.9,010.4,0000.0,0005.83,0002.77,0002.13
2024-05-27 03:25:00,SystemResetWarning,0829.3,5.00,000.00,031.3,030.5,000.0,039.6,032.9,010.4,0000.0,0005.67,0002.74,0002.14
2024-05-27 03:26:00,SystemResetWarning,0829.4,5.00,000.00,031.3,030.5,000.0,039.6,032.9,010.4,0000.0,0005.55,0002.73,0002.14
2024-05-27 03:27:00,SystemResetWarning,0829.3,5.00,000.00,031.3,030.5,000.0,039.6,032.9,010.4,0000.0,0005.48,0002.73,0002.15
2024-05-27 03:28:00,SystemResetWarning,0829.3,4.99,000.00,031.3,030.5,000.0,039.6,032.9,010.3,0000.0,0005.55,0002.74,0002.15
2024-05-27 03:29:00,SystemResetWarning,0829.3,5.00,000.00,031.3,030.5,000.0,039.6,032.9,010.2,0000.0,0004.90,0002.74,0002.15
2024-05-27 03:30:00,SystemResetWarning,0829.4,5.00,000.00,031.3,030.5,000.0,039.6,032.9,010.1,0000.0,0004.45,0002.78,0002.16
2024-05-27 03:31:00,SystemResetWarning,0829.4,5.00,000.00,031.3,030.5,000.0,039.6,032.9,010.0,0000.0,0004.58,0002.79,0002.14
2024-05-27 03:32:00,SystemResetWarning,0829.4,5.01,000.00,031.3,030.5,000.0,039.6,032.9,010.0,0000.0,0005.16,0002.78,0002.12
2024-05-27 03:33:00,SystemResetWarning,0829.4,5.01,000.00,031.3,030.5,000.0,039.6,032.9,010.0,0000.0,0005.16,0002.78,0002.13
2024-05-27 03:34:00,SystemResetWarning,0829.5,4.99,000.00,031.3,030.5,000.0,039.6,032.9,010.0,0000.0,0004.99,0002.72,0002.12
2024-05-27 03:35:00,SystemResetWarning,0829.5,4.99,000.00,031.3,030.5,000.0,039.6,032.9,010.0,0000.0,0004.88,0002.67,0002.10
2024-05-27 03:36:00,SystemResetWarning,0829.4,5.00,000.00,031.3,030.5,000.0,039.6,033.0,010.0,0000.0,0005.18,0002.71,0002.09
2024-05-27 03:37:00,SystemResetWarning,0829.4,5.00,000.00,031.3,030.6,000.0,039.6,033.0,010.1,0000.0,0005.47,0002.78,0002.10
2024-05-27 03:38:00,SystemResetWarning,0829.4,5.00,000.00,031.3,030.6,000.0,039.6,033.0,010.1,0000.0,0005.67,0002.81,0002.10
2024-05-27 03:39:00,SystemResetWarning,0829.4,4.99,000.00,031.3,030.6,000.0,039.6,033.0,010.1,0000.0,0005.69,0002.82,0002.10
2024-05-27 03:40:00,SystemResetWarning,0829.4,5.01,000.00,031.3,030.6,000.0,039.7,033.0,010.1,0000.0,0006.15,0002.84,0002.10
2024-05-27 03:41:00,SystemResetWarning,0829.5,5.01,000.00,031.4,030.6,000.0,039.7,033.0,010.1,0000.0,0006.39,0002.88,0002.10
2024-05-27 03:42:00,SystemResetWarning,0829.6,5.00,000.00,031.3,030.6,000.0,039.7,033.0,010.0,0000.0,0006.28,0002.90,0002.11
2024-05-27 03:43:00,SystemResetWarning,0829.6,5.00,000.00,031.3,030.6,000.0,039.7,033.0,010.0,0000.0,0005.58,0002.86,0002.10
2024-05-27 03:44:00,SystemResetWarning,0829.7,4.99,000.00,031.4,030.6,000.0,039.7,033.0,010.0,0000.0,0005.48,0002.83,0002.09
2024-05-27 03:45:00,SystemResetWarning,0829.7,4.99,000.00,031.3,030.6,000.0,039.7,033.0,010.1,0000.0,0005.62,0002.82,0002.10
2024-05-27 03:46:00,SystemResetWarning,0829.6,4.99,000.00,031.3,030.5,000.0,039.7,033.0,010.1,0000.0,0005.95,0002.87,0002.12
2024-05-27 03:47:00,SystemResetWarning,0829.6,5.00,000.00,031.3,030.5,000.0,039.7,033.0,010.2,0000.0,0005.86,0002.85,0002.12
2024-05-27 03:48:00,SystemResetWarning,0829.7,5.00,000.00,031.3,030.5,000.0,039.7,033.0,010.2,0000.0,0005.66,0002.82,0002.11
2024-05-27 03:49:00,SystemResetWarning,0829.7,5.00,000.00,031.3,030.5,000.0,039.7,033.0,010.2,0000.0,0005.65,0002.80,0002.10
2024-05-27 03:50:00,SystemResetWarning,0829.7,5.01,000.00,031.4,030.5,000.0,039.7,033.0,010.1,0000.0,0005.55,0002.78,0002.09
2024-05-27 03:51:00,SystemResetWarning,0829.7,5.00,000.00,031.4,030.6,000.0,039.7,033.0,010.1,0000.0,0005.35,0002.80,0002.09
2024-05-27 03:52:00,SystemResetWarning,0829.7,5.00,000.00,031.4,030.6,000.0,039.7,033.0,010.0,0000.0,0004.98,0002.74,0002.08
2024-05-27 03:53:00,SystemResetWarning,0829.7,4.99,000.00,031.4,030.6,000.0,039.7,033.0,010.0,0000.0,0004.96,0002.69,0002.07
2024-05-27 03:54:00,SystemResetWarning,0829.7,4.99,000.00,031.4,030.6,000.0,039.7,033.0,010.0,0000.0,0005.04,0002.69,0002.08
2024-05-27 03:55:00,SystemResetWarning,0829.7,5.00,000.00,031.4,030.6,000.0,039.7,033.0,009.9,0000.0,0004.99,0002.68,0002.09
2024-05-27 03:56:00,SystemResetWarning,0829.7,5.01,000.00,031.4,030.6,000.0,039.7,033.0,009.9,0000.0,0004.70,0002.66,0002.07
2024-05-27 03:57:00,SystemResetWarning,0829.7,5.00,000.00,031.4,030.6,000.0,039.7,033.0,009.9,0000.0,0004.53,0002.68,0002.07
2024-05-27 03:58:00,SystemResetWarning,0829.7,5.01,000.00,031.4,030.6,000.0,039.7,033.0,009.9,0000.0,0004.48,0002.69,0002.08
2024-05-27 03:59:00,SystemResetWarning,0829.7,5.00,000.00,031.4,030.6,000.0,039.7,033.0,009.9,0000.0,0005.55,0002.67,0002.07
